Change the Weather History Date:

Friday, February 27, 2015

  Actual Average Record
Temperature  
Mean Temperature 0 °F -  
Max Temperature 13 °F 40 °F 61 °F (1988)
Min Temperature -12 °F 21 °F -12 °F (2015)
Degree Days  
Heating Degree Days 64    
Moisture  
Dew Point -5 °F    
Average Humidity 78    
Maximum Humidity 86    
Minimum Humidity 63    
Precipitation  
Precipitation 0.00 in - - ()
Sea Level Pressure  
Sea Level Pressure 30.58 in    
Wind  
Wind Speed 5 mph (West)    
Max Wind Speed 9 mph    
Max Gust Speed -    
Visibility 10 miles    
Events      
Averages and records for this station are not official NWS values.
T = Trace of Precipitation, MM = Missing Value Source: NWS Daily Summary

Daily Weather History Graph

Daily Weather History Graph

Search for Another Location

Airport or City:

Trip Planner

Search our weather history database for the weather conditions in past years. The results will help you decide how hot, cold, wet, or windy it might be!

Date:

Astronomy

Feb. 27, 2015 Rise Set
Actual Time 6:55 AM CST 6:04 PM CST
Civil Twilight 6:27 AM CST 6:32 PM CST
Nautical Twilight 5:54 AM CST 7:04 PM CST
Astronomical Twilight 5:22 AM CST 7:36 PM CST
Moon 12:52 PM CST 2:48 AM CST
Length of Visible Light 12h 05m
Length of Day
11h 09m
Waxing Gibbous, 70% of the Moon is Illuminated
Feb 27
Waxing Gibbous
Mar 5
Full
Mar 13
Last Quarter
Mar 20
New
Mar 27
First Quarter

Hourly Weather History & Observations

Time (CST) Temp. Windchill Dew Point Humidity Pressure Visibility Wind Dir Wind Speed Gust Speed Precip Events Conditions
12:15 AM -6.2 °F -18.9 °F -9.6 °F 85% 30.56 in 10.0 mi NW 5.8 mph - N/A   Unknown
12:35 AM -7.2 °F -20.1 °F -10.8 °F 84% 30.56 in 10.0 mi NW 5.8 mph - N/A   Unknown
12:55 AM -6.3 °F -17.3 °F -9.8 °F 85% 30.56 in 10.0 mi WNW 4.6 mph - N/A   Unknown
1:15 AM -8.1 °F -19.4 °F -12.1 °F 83% 30.56 in 10.0 mi NW 4.6 mph - N/A   Unknown
1:35 AM -8.9 °F -20.2 °F -13.2 °F 81% 30.56 in 10.0 mi NW 4.6 mph - N/A   Unknown
1:55 AM -10.5 °F -25.6 °F -14.8 °F 81% 30.56 in 10.0 mi WNW 6.9 mph - N/A   Unknown
2:15 AM -10.7 °F -27.2 °F -14.8 °F 82% 30.57 in 10.0 mi West 8.1 mph - N/A   Unknown
2:35 AM -10.3 °F -27.9 °F -14.6 °F 81% 30.57 in 10.0 mi West 9.2 mph - N/A   Unknown
2:55 AM -10.7 °F -27.2 °F -15.0 °F 81% 30.57 in 10.0 mi West 8.1 mph - N/A   Unknown
3:15 AM -10.3 °F -26.7 °F -14.8 °F 81% 30.56 in 10.0 mi West 8.1 mph - N/A   Unknown
3:35 AM -10.8 °F -28.6 °F -15.2 °F 81% 30.57 in 10.0 mi West 9.2 mph - N/A   Unknown
3:55 AM -10.7 °F -28.4 °F -15.0 °F 81% 30.57 in 10.0 mi West 9.2 mph - N/A   Unknown
4:15 AM -11.4 °F -28.0 °F -15.7 °F 81% 30.57 in 10.0 mi West 8.1 mph - N/A   Unknown
4:35 AM -11.6 °F -28.3 °F -15.9 °F 81% 30.57 in 10.0 mi West 8.1 mph - N/A   Unknown
4:55 AM -11.2 °F -27.8 °F -15.5 °F 81% 30.57 in 10.0 mi WNW 8.1 mph - N/A   Unknown
5:15 AM -11.2 °F -24.8 °F -15.3 °F 82% 30.57 in 10.0 mi WNW 5.8 mph - N/A   Unknown
5:35 AM -9.9 °F -21.5 °F -14.1 °F 82% 30.58 in 10.0 mi NW 4.6 mph - N/A   Unknown
5:55 AM -10.1 °F -23.6 °F -14.3 °F 82% 30.58 in 10.0 mi WNW 5.8 mph - N/A   Unknown
6:15 AM -10.7 °F -25.8 °F -15.0 °F 81% 30.58 in 10.0 mi WNW 6.9 mph - N/A   Unknown
6:35 AM -11.7 °F -27.1 °F -15.9 °F 82% 30.59 in 10.0 mi West 6.9 mph - N/A   Unknown
6:55 AM -12.1 °F -27.5 °F -16.2 °F 82% 30.58 in 10.0 mi WNW 6.9 mph - N/A   Unknown
7:15 AM -12.1 °F -27.5 °F -16.6 °F 80% 30.59 in 10.0 mi WNW 6.9 mph - N/A   Unknown
7:35 AM -11.0 °F -22.8 °F -15.0 °F 83% 30.59 in 10.0 mi NW 4.6 mph - N/A   Unknown
7:55 AM -8.9 °F -23.6 °F -12.8 °F 83% 30.61 in 10.0 mi WNW 6.9 mph - N/A   Unknown
8:15 AM -6.7 °F -19.5 °F -10.7 °F 83% 30.61 in 10.0 mi West 5.8 mph - N/A   Unknown
8:35 AM -4.2 °F -14.8 °F -7.8 °F 84% 30.62 in 10.0 mi WNW 4.6 mph - N/A   Unknown
8:55 AM -3.5 °F -15.7 °F -6.9 °F 85% 30.63 in 10.0 mi WNW 5.8 mph - N/A   Unknown
9:15 AM -1.7 °F -9.7 °F -5.3 °F 85% 30.63 in 10.0 mi West 3.5 mph - N/A   Unknown
9:35 AM -0.6 °F -8.5 °F -4.2 °F 85% 30.63 in 10.0 mi WNW 3.5 mph - N/A   Unknown
9:55 AM 0.5 °F -7.3 °F -3.6 °F 83% 30.64 in 10.0 mi NW 3.5 mph - N/A   Unknown
10:15 AM 1.9 °F -5.6 °F -3.6 °F 77% 30.63 in 10.0 mi NNW 3.5 mph - N/A   Unknown
10:35 AM 3.4 °F - -3.1 °F 74% 30.63 in 10.0 mi Calm Calm - N/A   Unknown
10:55 AM 4.3 °F - -3.1 °F 71% 30.63 in 10.0 mi Calm Calm - N/A   Unknown
11:15 AM 6.6 °F - -1.1 °F 71% 30.63 in 10.0 mi Calm Calm - N/A   Unknown
11:35 AM 6.8 °F - -1.8 °F 68% 30.63 in 10.0 mi Calm Calm - N/A   Unknown
11:55 AM 8.6 °F 2.0 °F 0.3 °F 69% 30.63 in 10.0 mi WNW 3.5 mph - N/A   Unknown
12:15 PM 8.4 °F - 0.3 °F 70% 30.63 in 10.0 mi Calm Calm - N/A   Unknown
12:35 PM 9.1 °F 2.6 °F 0.9 °F 69% 30.62 in 10.0 mi SSW 3.5 mph - N/A   Unknown
12:55 PM 9.5 °F 3.0 °F 1.8 °F 71% 30.61 in 10.0 mi West 3.5 mph - N/A   Unknown
1:15 PM 10.2 °F - 1.8 °F 69% 30.60 in 10.0 mi Calm Calm - N/A   Unknown
1:35 PM 11.1 °F 4.9 °F 3.2 °F 70% 30.60 in 10.0 mi SW 3.5 mph - N/A   Unknown
1:55 PM 11.3 °F - 2.5 °F 68% 30.59 in 10.0 mi Calm Calm - N/A   Unknown
2:15 PM 11.7 °F - 2.1 °F 66% 30.58 in 10.0 mi Calm Calm - N/A   Unknown
2:35 PM 12.0 °F - 2.7 °F 66% 30.58 in 10.0 mi Calm Calm - N/A   Unknown
2:55 PM 11.7 °F - 2.3 °F 66% 30.57 in 10.0 mi Calm Calm - N/A   Unknown
3:15 PM 12.9 °F - 3.2 °F 65% 30.57 in 10.0 mi Calm Calm - N/A   Unknown
3:35 PM 12.0 °F - 2.8 °F 67% 30.57 in 10.0 mi Calm Calm - N/A   Unknown
3:55 PM 13.3 °F 7.3 °F 4.1 °F 67% 30.57 in 10.0 mi SE 3.5 mph - N/A   Unknown
4:15 PM 12.6 °F - 2.3 °F 64% 30.56 in 10.0 mi Calm Calm - N/A   Unknown
4:35 PM 13.3 °F - 2.7 °F 63% 30.56 in 10.0 mi Calm Calm - N/A   Unknown
4:55 PM 13.8 °F - 3.2 °F 63% 30.55 in 10.0 mi Calm Calm - N/A   Unknown
5:15 PM 12.6 °F - 3.4 °F 67% 30.55 in 10.0 mi Calm Calm - N/A   Unknown
5:35 PM 11.8 °F - 3.6 °F 69% 30.54 in 10.0 mi Calm Calm - N/A   Unknown
5:55 PM 11.1 °F - 3.4 °F 71% 30.54 in 10.0 mi Calm Calm - N/A   Unknown
6:15 PM 10.4 °F 4.0 °F 3.2 °F 73% 30.55 in 10.0 mi SSE 3.5 mph - N/A   Unknown
6:35 PM 7.0 °F -3.3 °F 1.8 °F 79% 30.55 in 7.0 mi ESE 5.8 mph - N/A   Unknown
6:55 PM 5.7 °F -4.8 °F 1.2 °F 82% 30.56 in 10.0 mi ESE 5.8 mph - N/A   Unknown
7:15 PM 5.7 °F -3.2 °F 1.0 °F 81% 30.56 in 10.0 mi ESE 4.6 mph - N/A   Unknown
7:35 PM 6.1 °F -2.8 °F 1.4 °F 81% 30.56 in 10.0 mi SE 4.6 mph - N/A   Unknown
7:55 PM 5.5 °F -5.0 °F 0.9 °F 81% 30.56 in 10.0 mi ESE 5.8 mph - N/A   Unknown
8:15 PM 5.5 °F -6.3 °F 0.5 °F 80% 30.56 in 10.0 mi SE 6.9 mph - N/A   Unknown
8:35 PM 2.7 °F -6.8 °F -0.9 °F 85% 30.57 in 10.0 mi SE 4.6 mph - N/A   Unknown
8:55 PM 2.3 °F -5.2 °F -1.5 °F 84% 30.57 in 10.0 mi ESE 3.5 mph - N/A   Unknown
9:15 PM 3.2 °F -6.2 °F -1.3 °F 82% 30.57 in 10.0 mi ESE 4.6 mph - N/A   Unknown
9:35 PM 3.7 °F -7.1 °F -1.3 °F 80% 30.57 in 10.0 mi ESE 5.8 mph - N/A   Unknown
9:55 PM 3.6 °F -8.7 °F -1.3 °F 80% 30.57 in 10.0 mi SE 6.9 mph - N/A   Unknown
10:15 PM 2.7 °F -9.7 °F -1.7 °F 82% 30.57 in 10.0 mi SE 6.9 mph - N/A   Unknown
10:35 PM 2.3 °F -10.2 °F -1.7 °F 84% 30.57 in 10.0 mi SE 6.9 mph - N/A   Unknown
10:55 PM 2.1 °F -10.4 °F -1.8 °F 83% 30.57 in 10.0 mi SE 6.9 mph - N/A   Unknown
11:15 PM 2.3 °F -8.8 °F -1.5 °F 84% 30.56 in 10.0 mi SE 5.8 mph - N/A   Unknown
11:35 PM 1.2 °F -8.5 °F -2.4 °F 85% 30.56 in 10.0 mi ESE 4.6 mph - N/A   Unknown
11:55 PM -0.4 °F -10.4 °F -3.6 °F 86% 30.56 in 10.0 mi ESE 4.6 mph - N/A   Unknown